TimePDT,TemperatureF,Dew PointF,Humidity,Sea Level PressureIn,VisibilityMPH,Wind Direction,Wind SpeedMPH,Gust SpeedMPH,PrecipitationIn,Events,Conditions,WindDirDegrees,DateUTC
12:56 AM,42.1,39.9,92,29.90,10.0,Calm,Calm,-,0.00,Rain,Light Rain,0,2013-04-06 07:56:00
1:56 AM,41.0,39.9,96,29.89,10.0,Calm,Calm,-,0.01,,Overcast,0,2013-04-06 08:56:00
2:56 AM,41.0,39.9,96,29.88,10.0,Calm,Calm,-,0.01,Rain,Light Rain,0,2013-04-06 09:56:00
3:56 AM,41.0,39.9,96,29.87,10.0,Calm,Calm,-,0.00,,Overcast,0,2013-04-06 10:56:00
4:56 AM,39.9,37.9,93,29.88,10.0,Calm,Calm,-,N/A,,Mostly Cloudy,0,2013-04-06 11:56:00
5:56 AM,39.9,39.0,97,29.90,10.0,Calm,Calm,-,0.00,Rain,Light Rain,0,2013-04-06 12:56:00
6:13 AM,39.2,35.6,87,29.88,7.0,Calm,Calm,-,0.03,Rain,Light Rain,0,2013-04-06 13:13:00
6:56 AM,39.9,36.0,86,29.92,4.0,Variable,5.8,-,0.12,Rain,Light Rain,0,2013-04-06 13:56:00
7:56 AM,39.0,37.0,93,29.94,2.0,Calm,Calm,-,0.09,Rain,Rain,0,2013-04-06 14:56:00
8:15 AM,39.2,35.6,87,29.93,2.5,Calm,Calm,-,0.05,Rain,Light Rain,0,2013-04-06 15:15:00
8:22 AM,39.2,37.4,93,29.93,3.0,Calm,Calm,-,0.05,Rain,Light Rain,0,2013-04-06 15:22:00
8:56 AM,39.0,37.0,93,29.96,5.0,Calm,Calm,-,0.08,Rain,Light Rain,0,2013-04-06 15:56:00
9:03 AM,39.2,37.4,93,29.93,4.0,Calm,Calm,-,0.01,Rain,Light Rain,0,2013-04-06 16:03:00
9:19 AM,39.2,37.4,93,29.93,10.0,Calm,Calm,-,0.02,Rain,Light Rain,0,2013-04-06 16:19:00
9:48 AM,41.0,37.4,87,29.93,10.0,Calm,Calm,-,0.02,,Overcast,0,2013-04-06 16:48:00
9:56 AM,42.1,39.0,89,29.95,10.0,Calm,Calm,-,0.02,,Overcast,0,2013-04-06 16:56:00
10:03 AM,41.0,37.4,87,29.93,10.0,Calm,Calm,-,N/A,,Overcast,0,2013-04-06 17:03:00
10:36 AM,44.6,39.2,81,29.93,10.0,Calm,Calm,-,N/A,,Overcast,0,2013-04-06 17:36:00
10:56 AM,44.1,37.9,79,29.96,10.0,Calm,Calm,-,N/A,,Overcast,0,2013-04-06 17:56:00
11:56 AM,42.1,39.9,92,29.98,2.0,Calm,Calm,-,0.02,Rain,Rain,0,2013-04-06 18:56:00
12:10 PM,42.8,39.2,87,29.95,8.0,Variable,3.5,-,0.02,Rain,Light Rain,0,2013-04-06 19:10:00
12:44 PM,42.8,37.4,81,29.96,10.0,Variable,3.5,-,0.02,Rain,Light Rain,0,2013-04-06 19:44:00
12:52 PM,42.8,37.4,81,29.96,10.0,Calm,Calm,-,0.02,,Overcast,0,2013-04-06 19:52:00
12:56 PM,42.1,37.9,85,29.99,9.0,Calm,Calm,-,0.02,Rain,Light Rain,0,2013-04-06 19:56:00
1:13 PM,42.8,37.4,81,29.96,4.0,Calm,Calm,-,0.01,Rain,Light Rain,0,2013-04-06 20:13:00
1:31 PM,42.8,39.2,87,29.97,3.0,Calm,Calm,-,0.02,Rain,Light Rain,0,2013-04-06 20:31:00
1:42 PM,42.8,39.2,87,29.96,10.0,Variable,4.6,-,0.03,Rain,Light Rain,0,2013-04-06 20:42:00
1:47 PM,42.8,39.2,87,29.96,10.0,Variable,5.8,-,0.03,,Overcast,0,2013-04-06 20:47:00
1:56 PM,44.1,39.0,82,29.98,10.0,Calm,Calm,-,0.03,,Overcast,0,2013-04-06 20:56:00
2:06 PM,44.6,39.2,81,29.95,10.0,Calm,Calm,-,0.00,Rain,Light Rain,0,2013-04-06 21:06:00
2:19 PM,41.0,37.4,87,29.97,1.8,Variable,5.8,-,0.00,Rain,Heavy Rain,0,2013-04-06 21:19:00
2:31 PM,39.2,37.4,93,29.96,3.0,Variable,4.6,-,0.08,Rain,Light Rain,0,2013-04-06 21:31:00
2:41 PM,41.0,37.4,87,29.96,10.0,Variable,3.5,-,0.08,,Overcast,0,2013-04-06 21:41:00
2:48 PM,42.8,37.4,81,29.95,10.0,Variable,5.8,-,0.08,,Overcast,0,2013-04-06 21:48:00
2:56 PM,42.1,39.0,89,29.98,10.0,Calm,Calm,-,0.08,,Mostly Cloudy,0,2013-04-06 21:56:00
3:04 PM,42.8,39.2,87,29.95,10.0,Variable,4.6,-,N/A,,Mostly Cloudy,0,2013-04-06 22:04:00
3:24 PM,42.8,39.2,87,29.94,10.0,Calm,Calm,-,N/A,,Mostly Cloudy,0,2013-04-06 22:24:00
3:56 PM,46.0,39.9,79,29.95,10.0,Calm,Calm,-,N/A,,Scattered Clouds,0,2013-04-06 22:56:00
4:36 PM,46.4,39.2,76,29.92,10.0,Calm,Calm,-,0.00,,Overcast,0,2013-04-06 23:36:00
4:56 PM,46.0,39.0,76,29.94,10.0,Calm,Calm,-,0.00,,Mostly Cloudy,0,2013-04-06 23:56:00
5:04 PM,44.6,37.4,76,29.92,10.0,Variable,3.5,-,N/A,,Overcast,0,2013-04-07 00:04:00
5:56 PM,44.1,39.0,82,29.94,10.0,Calm,Calm,-,0.00,,Mostly Cloudy,0,2013-04-07 00:56:00
6:31 PM,42.8,37.4,81,29.92,2.5,Variable,4.6,-,0.01,Rain,Rain,0,2013-04-07 01:31:00
6:42 PM,41.0,37.4,87,29.91,5.0,Calm,Calm,-,0.02,Rain,Light Rain,0,2013-04-07 01:42:00
6:56 PM,41.0,39.0,93,29.94,7.0,Calm,Calm,-,0.03,Rain,Light Rain,0,2013-04-07 01:56:00
7:03 PM,41.0,39.2,93,29.91,7.0,Calm,Calm,-,0.00,Rain,Light Rain,0,2013-04-07 02:03:00
7:56 PM,41.0,39.0,93,29.93,9.0,Calm,Calm,-,0.02,Rain,Light Rain,0,2013-04-07 02:56:00
8:22 PM,41.0,39.2,93,29.90,8.0,Calm,Calm,-,0.00,Rain,Light Rain,0,2013-04-07 03:22:00
8:34 PM,39.2,39.2,100,29.89,4.0,Calm,Calm,-,0.01,Rain,Light Rain,0,2013-04-07 03:34:00
8:41 PM,39.2,37.4,93,29.89,5.0,Calm,Calm,-,0.02,Rain,Light Rain,0,2013-04-07 03:41:00
8:56 PM,39.9,37.9,93,29.93,6.0,Calm,Calm,-,0.03,Rain,Light Rain,0,2013-04-07 03:56:00
9:09 PM,39.2,37.4,93,29.90,8.0,Calm,Calm,-,0.01,Rain,Light Rain,0,2013-04-07 04:09:00
9:21 PM,39.2,37.4,93,29.89,9.0,Calm,Calm,-,0.01,Rain,Light Rain,0,2013-04-07 04:21:00
9:56 PM,37.9,36.0,93,29.91,5.0,Calm,Calm,-,0.04,Rain,Light Rain,0,2013-04-07 04:56:00
10:18 PM,37.4,35.6,93,29.87,5.0,Calm,Calm,-,0.03,Rain,Light Rain,0,2013-04-07 05:18:00
10:56 PM,37.0,36.0,96,29.88,10.0,Calm,Calm,-,0.05,Rain,Light Rain,0,2013-04-07 05:56:00
11:37 PM,37.4,35.6,93,29.83,10.0,Calm,Calm,-,0.01,Rain,Light Rain,0,2013-04-07 06:37:00
11:56 PM,37.0,35.1,93,29.85,10.0,Calm,Calm,-,0.01,Rain,Light Rain,0,2013-04-07 06:56:00